Change the Weather History Date:

Tuesday, November 5, 2013

  Actual Average Record
Temperature  
Mean Temperature 57 °F -  
Max Temperature 64 °F 58 °F 81 °F (1987)
Min Temperature 50 °F 37 °F 13 °F (1991)
Degree Days  
Heating Degree Days 8    
Growing Degree Days 7 (Base 50)    
Moisture  
Dew Point 48 °F    
Average Humidity 73    
Maximum Humidity 100    
Minimum Humidity 52    
Precipitation  
Precipitation 0.01 in - - ()
Sea Level Pressure  
Sea Level Pressure 30.21 in    
Wind  
Wind Speed 5 mph (SSE)    
Max Wind Speed 18 mph    
Max Gust Speed 26 mph    
Visibility 10 miles    
Events Rain    
Averages and records for this station are not official NWS values.
T = Trace of Precipitation, MM = Missing Value Source: NWS Daily Summary

Daily Weather History Graph

Daily Weather History Graph

Search for Another Location

Airport or City:

Trip Planner

Search our weather history database for the weather conditions in past years. The results will help you decide how hot, cold, wet, or windy it might be!

Date:

Astronomy

Nov. 05, 2013 Rise Set
Actual Time 6:25 AM CST 4:52 PM CST
Civil Twilight 5:58 AM CST 5:20 PM CST
Nautical Twilight 5:27 AM CST 5:51 PM CST
Astronomical Twilight 4:56 AM CST 6:22 PM CST
Moon 8:39 AM CST (11/5) 6:55 PM CST (11/5)
Length of Visible Light 11h 21m
Length of Day
10h 27m
Waxing Crescent, 7% of the Moon is Illuminated
Nov 5
Waxing Crescent
Nov 9
First Quarter
Nov 17
Full
Nov 25
Last Quarter
Dec 2
New

Hourly Weather History & Observations

Time (CST) Temp. Dew Point Humidity Pressure Visibility Wind Dir Wind Speed Gust Speed Precip Events Conditions
12:15 AM 50.0 °F 50.0 °F 100% 30.29 in 4.0 mi Calm Calm - N/A Rain Rain
12:35 AM 50.0 °F 50.0 °F 100% 30.30 in 4.0 mi Calm Calm - 0.01 in   Overcast
12:55 AM 50.0 °F 50.0 °F 100% 30.30 in 4.0 mi Calm Calm - 0.01 in   Overcast
1:15 AM 50.0 °F 50.0 °F 100% 30.30 in 3.0 mi Calm Calm - N/A Rain Light Rain
1:35 AM 50.0 °F 50.0 °F 100% 30.28 in 3.0 mi Calm Calm - N/A   Overcast
1:55 AM 50.0 °F 50.0 °F 100% 30.28 in 2.5 mi Calm Calm - N/A   Overcast
2:15 AM 50.0 °F 50.0 °F 100% 30.28 in 1.8 mi Calm Calm - N/A   Mostly Cloudy
2:35 AM 50.0 °F 50.0 °F 100% 30.27 in 3.0 mi Calm Calm - N/A   Scattered Clouds
2:55 AM 50.0 °F 50.0 °F 100% 30.28 in 7.0 mi Calm Calm - N/A   Clear
3:15 AM 50.0 °F 48.2 °F 94% 30.28 in 4.0 mi Calm Calm - N/A   Scattered Clouds
3:35 AM 50.0 °F 48.2 °F 94% 30.27 in 4.0 mi Calm Calm - N/A   Scattered Clouds
3:55 AM 50.0 °F 48.2 °F 94% 30.27 in 7.0 mi Calm Calm - N/A   Scattered Clouds
4:15 AM 50.0 °F 48.2 °F 94% 30.27 in 7.0 mi Calm Calm - N/A   Scattered Clouds
4:35 AM 50.0 °F 48.2 °F 94% 30.28 in 5.0 mi Calm Calm - N/A   Clear
4:55 AM 50.0 °F 48.2 °F 94% 30.28 in 7.0 mi Calm Calm - N/A   Clear
5:15 AM 50.0 °F 48.2 °F 94% 30.29 in 10.0 mi Calm Calm - N/A   Mostly Cloudy
6:55 AM 51.8 °F 46.4 °F 82% 30.29 in 15.0 mi SSE 9.2 mph - N/A   Mostly Cloudy
7:55 AM 53.6 °F 46.4 °F 77% 30.33 in 15.0 mi South 10.4 mph - N/A   Mostly Cloudy
8:55 AM 55.4 °F 46.4 °F 72% 30.33 in 15.0 mi South 10.4 mph - N/A   Mostly Cloudy
9:55 AM 57.2 °F 44.6 °F 63% 30.31 in 15.0 mi South 11.5 mph - N/A   Mostly Cloudy
10:55 AM 60.8 °F 46.4 °F 59% 30.29 in 20.0 mi South 16.1 mph - N/A   Mostly Cloudy
11:55 AM 62.6 °F 46.4 °F 55% 30.26 in 20.0 mi South 9.2 mph - N/A   Scattered Clouds
12:53 PM 64.4 °F 48.2 °F 56% 30.24 in 20.0 mi South 13.8 mph - N/A   Mostly Cloudy
1:54 PM 64.4 °F 48.2 °F 56% 30.21 in 20.0 mi SSE 13.8 mph - N/A   Overcast
2:52 PM 64.4 °F 46.4 °F 52% 30.20 in 20.0 mi SSE 13.8 mph - N/A   Mostly Cloudy
3:52 PM 62.6 °F 46.4 °F 55% 30.18 in 20.0 mi SSE 11.5 mph - N/A   Overcast
4:52 PM 62.6 °F 46.4 °F 55% 30.18 in 20.0 mi SSE 11.5 mph - N/A   Overcast
5:35 PM 60.8 °F 46.4 °F 59% 30.16 in 10.0 mi SE 5.8 mph - N/A   Overcast
5:52 PM 60.8 °F 46.4 °F 59% 30.17 in 20.0 mi SSE 8.1 mph - N/A   Overcast
5:55 PM 60.8 °F 46.4 °F 59% 30.16 in 10.0 mi SE 5.8 mph - N/A   Overcast
6:15 PM 60.8 °F 46.4 °F 59% 30.16 in 10.0 mi SE 4.6 mph - N/A   Overcast
6:35 PM 60.8 °F 46.4 °F 59% 30.15 in 10.0 mi SE 4.6 mph - N/A   Overcast
6:55 PM 60.8 °F 46.4 °F 59% 30.14 in 10.0 mi ESE 5.8 mph - N/A   Overcast
7:15 PM 60.8 °F 46.4 °F 59% 30.14 in 10.0 mi SE 5.8 mph - N/A   Overcast
7:35 PM 60.8 °F 46.4 °F 59% 30.14 in 10.0 mi SE 3.5 mph - N/A   Overcast
7:55 PM 60.8 °F 46.4 °F 59% 30.13 in 10.0 mi SE 5.8 mph - N/A   Overcast
8:15 PM 60.8 °F 48.2 °F 63% 30.12 in 10.0 mi SE 5.8 mph - N/A   Overcast
8:35 PM 62.6 °F 48.2 °F 59% 30.11 in 10.0 mi SE 6.9 mph - N/A   Overcast
8:55 PM 62.6 °F 48.2 °F 59% 30.11 in 10.0 mi SSE 10.4 mph - N/A   Overcast
9:15 PM 64.4 °F 50.0 °F 59% 30.12 in 10.0 mi South 12.7 mph 20.7 mph N/A   Overcast
9:35 PM 64.4 °F 50.0 °F 59% 30.12 in 10.0 mi South 15.0 mph 19.6 mph N/A   Overcast
9:55 PM 64.4 °F 50.0 °F 59% 30.12 in 10.0 mi South 16.1 mph 19.6 mph N/A   Overcast
10:15 PM 64.4 °F 50.0 °F 59% 30.12 in 10.0 mi South 16.1 mph 26.5 mph N/A   Mostly Cloudy
10:35 PM 62.6 °F 50.0 °F 63% 30.12 in 10.0 mi South 13.8 mph 20.7 mph N/A   Overcast
10:55 PM 62.6 °F 50.0 °F 63% 30.12 in 10.0 mi South 18.4 mph 24.2 mph N/A   Overcast
11:15 PM 62.6 °F 50.0 °F 63% 30.12 in 10.0 mi South 16.1 mph 24.2 mph N/A   Overcast
11:35 PM 62.6 °F 50.0 °F 63% 30.12 in 10.0 mi South 17.3 mph 25.3 mph N/A   Overcast
11:55 PM 62.6 °F 48.2 °F 59% 30.12 in 10.0 mi South 18.4 mph 25.3 mph N/A   Overcast